#timestamp,LO_Frequency,Hit,StdDev 
1548230415.2,286047003.9,N
1548230435.0,286047005.4,Y
1548230435.9,286047005.4,P
1548230455.8,286047003.6,N
1548230475.6,286047003.4,N
1548230495.5,286047003.6,Y
1548230515.3,286046999.7,P
1548230535.1,286046998.6,N
1548230555.9,286046998.2,N
1548230575.7,286047001.0,N
1548230595.5,286047001.2,N
1548230615.4,286046998.1,N
1548230635.2,286047002.3,N
1548230655.1,286047000.6,N
1548230656.0,286047000.6,N
1548230675.8,286047000.1,N
1548230695.6,286047001.1,N
1548230715.5,286047001.0,N
1548230735.3,286047001.1,N
1548230755.1,286047002.5,N
1548230775.9,286047001.8,N
1548230795.7,286047003.1,N
1548230815.6,286047003.2,N
1548230835.4,286047005.4,Y
1548230855.2,286047004.1,P
1548230875.1,286047003.9,N
1548230876.0,286047003.9,N
1548230895.8,286047001.4,N
1548230915.7,286047001.5,N
1548230935.5,286047003.3,N
1548230955.3,286047005.7,Y
1548230975.2,286047002.8,P
1548230995.0,286047000.3,P
1548230995.9,286047000.3,N
1548231015.7,286047000.6,N
1548231035.6,286046998.9,N
1548231055.4,286047001.1,N
1548231075.3,286046999.0,N
1548231095.1,286047000.5,N
1548231096.0,286047000.5,N
1548231115.8,286047000.3,N
1548231135.7,286047002.5,N
1548231155.5,286047002.4,N
1548231205.4,286047002.3,E
1548231215.3,286047002.1,N
1548231235.1,286046999.9,P
1548231255.9,286046998.7,N
1548231275.7,286046999.0,N
1548231295.5,286046999.0,N
1548231315.4,286046999.4,N
1548231335.2,286046999.5,N
1548231355.1,286046998.8,N
1548231356.0,286046998.8,N
1548231375.8,286046999.0,N
1548231395.6,286046998.7,N
1548231415.5,286046998.5,N
1548231435.3,286046999.3,N
1548231455.1,286046999.5,N
1548231475.9,286046996.6,Y
1548231495.7,286046996.6,P
1548231515.6,286046997.9,N
1548231535.4,286046997.6,N
1548231555.2,286046996.0,Y
1548231575.1,286046997.2,P
1548231576.0,286046997.2,P
1548231595.8,286046997.3,P
1548231615.6,286046999.3,N
1548231635.5,286046999.3,N
1548231655.3,286046998.6,N
1548231675.2,286046999.3,N
1548231695.9,286046998.9,N
1548231715.7,286046999.4,N
1548231735.6,286046998.8,N
1548231755.4,286046998.5,N
1548231775.2,286046998.1,N
1548231795.1,286047001.1,N
1548231796.0,286047001.1,N
1548231815.8,286047000.3,N
1548231835.7,286046999.9,N
1548231855.5,286047000.6,N
1548231875.3,286047000.4,N
1548231895.2,286047002.6,N
1548231915.0,286047001.5,N
1548231915.9,286047001.5,N
1548231935.8,286047001.4,N
1548231955.6,286047001.3,N
1548231975.4,286047003.6,N
1548231995.3,286047002.9,N
1548232015.1,286047005.3,Y
1548232035.8,286047004.8,P
1548232055.7,286047005.8,N
1548232075.5,286047003.0,N
1548232095.4,286047005.1,N
1548232115.2,286047005.7,N
1548232135.0,286047005.5,N
1548232135.9,286047005.5,N
1548232155.8,286047003.7,N
1548232175.6,286047005.6,Y
1548232195.4,286047002.8,P
1548232215.3,286047000.2,N
1548232235.1,286046998.2,N
1548232255.9,286047000.6,N
1548232275.7,286047000.6,N
1548232295.5,286047000.8,N
1548232315.4,286047001.2,N
1548232335.2,286046998.6,N
1548232355.0,286046998.1,N
1548232356.0,286046998.1,N
1548232375.8,286047000.5,N
1548232395.6,286047002.3,N
1548232415.5,286046998.1,N
1548232435.3,286047002.8,N
1548232455.1,286047004.0,N
1548232475.9,286047001.6,N
1548232495.7,286047002.5,N
1548232515.5,286047002.0,N
1548232535.4,286047003.8,N
1548232555.2,286047002.6,N
1548232575.1,286047002.4,N
1548232576.0,286047002.4,N
1548232595.8,286047000.2,N
1548232615.6,286047000.9,N
1548232665.5,286047001.1,E
1548232675.4,286047001.1,N
1548232695.2,286047000.2,P
1548232715.1,286047001.0,N
1548232716.0,286047001.0,N
1548232735.8,286047000.7,N
1548232755.7,286046998.7,Y
1548232775.5,286046996.9,P
1548232795.3,286046997.3,N
1548232815.2,286046997.1,N
1548232835.0,286046999.3,N
1548232835.9,286046999.3,N
1548232855.7,286046999.3,N
1548232875.6,286047000.1,N
1548232895.4,286047002.8,N
1548232915.3,286046999.9,N
1548232935.1,286047002.7,N
1548232936.0,286047002.7,N
1548232955.8,286047002.5,N
1548232975.7,286047001.8,N
1548232995.5,286047002.5,N
1548233015.3,286047002.5,N
1548233035.2,286047000.5,N
1548233055.0,286047001.2,N
1548233055.9,286047001.2,N
1548233075.8,286046999.5,N
1548233095.6,286046996.9,N
1548233115.4,286046996.0,N
1548233135.3,286046998.0,N
1548233155.1,286046998.0,N
1548233175.8,286046995.5,N
1548233195.7,286046995.4,N
1548233215.5,286046995.0,N
1548233235.4,286046995.4,N
1548233255.2,286046997.3,N
1548233275.0,286046998.9,N
1548233275.9,286046998.9,N
1548233295.8,286046999.6,N
1548233315.6,286046998.7,N
1548233335.4,286046997.1,N
1548233355.3,286046997.1,N
1548233375.1,286046997.4,N
1548233395.8,286046999.0,N
1548233415.7,286046998.3,N
1548233435.5,286046998.1,N
1548233455.4,286046998.6,N
1548233475.2,286046999.0,N
1548233495.0,286046998.9,N
1548233495.9,286046998.9,N
1548233515.8,286046998.1,N
1548233535.6,286046998.2,N
1548233555.4,286047000.8,N
1548233575.3,286047002.8,N
1548233595.1,286047001.6,N
1548233615.9,286047000.5,N
1548233635.7,286046998.7,N
1548233655.5,286046997.0,N
1548233675.4,286046997.8,N
1548233695.2,286046997.2,N
1548233715.1,286046996.8,N
1548233716.0,286046996.8,N
1548233735.8,286046999.1,N
1548233755.6,286046998.7,N
1548233775.5,286046998.3,N
1548233795.3,286046998.2,N
1548233815.1,286047001.2,N
1548233835.9,286046996.8,N
1548233855.7,286046996.5,N
1548233875.6,286046999.6,N
1548233895.4,286046997.4,N
1548233915.2,286046995.3,Y
1548233935.1,286046997.3,P
1548233936.0,286046997.3,P
1548233955.8,286046996.7,P
1548233975.7,286046997.9,Y
1548233995.5,286046998.4,P
